Weather Roundup
Issued by NWS

Home | Current Version | Previous Version | Text Only | Print | Product List | Glossary On
Versions: 1 2 3 4 5 6 7 8 9 10 11 12 13 14 15 16 17 18 19 20 21 22 23 24 25 26 27 28 29 30 31 32 33 34 35 36 37 38 39 40 41 42 43 44 45 46 47 48 49 50
000
NZUS93 KARX 051110
HRRWXR

CURRENT HOURLY OBSERVATIONS ACROSS
MUCH OF THE UPPER MISSISSIPPI VALLEY
NATIONAL WEATHER SERVICE LA CROSSE WI
500 AM CST THU MAR 05 2015


...SOUTHEAST MINNESOTA...


CITY           SKY/WX    TMP DP  RH WIND       PRES   REMARKS
ROCHESTER      CLEAR    -10 -15  78 NW7       30.39R WCI -25
ROCHESTER/MAYO FAIR      -5 -11  75 W5        30.41R WCI -16
WINONA         CLEAR     -4  -9  77 NW5       30.47R WCI -15
AUSTIN         CLEAR     -8 -11  84 NW3       30.41R
ALBERT LEA     CLEAR     -9 -13  84 CALM      30.41S
DODGE CENTER   PTCLDY    -8  -9  92 NW7       30.39R WCI -22
PRESTON        CLEAR    -10 -15  76 NW7       30.40R WCI -25
OWATONNA       CLEAR    -11 -17  77 CALM      30.42S
FARIBAULT      CLEAR     -9 -15  77 CALM      30.44R
$$

...ELSEWHERE IN MINNESOTA...


CITY           SKY/WX    TMP DP  RH WIND       PRES   REMARKS
MINNEAPOLIS    FAIR      -6 -12  75 W5        30.45R WCI -17
INTNL FALLS    PTCLDY   -23 -28  78 SW5       30.31S WCI -37
DULUTH         PTCLDY   -13 -19  75 NW8       30.30S WCI -30
RED WING       CLEAR    -15 -20  76 CALM      30.45R
REDWOOD FALLS  CLEAR     -8 -14  74 W5        30.45R WCI -19
MANKATO        CLEAR     -8 -13  77 CALM      30.44R
FAIRMONT       CLEAR     -8 -13  77 W3        30.42S
$$

...SOUTHWEST WISCONSIN...


CITY           SKY/WX    TMP DP  RH WIND       PRES   REMARKS
LA CROSSE      CLEAR     -3 -11  68 N3        30.45R
PRAIRIE DU CHI CLEAR     -3 -11  67 CALM      30.46R
BOSCOBEL       CLEAR     -8 -14  74 CALM      30.45R
LONE ROCK      CLEAR     -5 -10  79 CALM      30.43R
PLATTEVILLE    CLEAR     -3 -10  74 W5        30.39R WCI -14
FORT MC COY    CLEAR    -12 -17  79 CALM      30.43R
CAMP DOUGLAS   CLEAR     -7 -12  80 VRB5      30.40R WCI -18
VIROQUA        FAIR      -4 -10  77 NW5       30.36S WCI -15
WIS DELLS      CLEAR     -3 -12  65 CALM      30.39R
$$

...ELSEWHERE IN WISCONSIN...


CITY           SKY/WX    TMP DP  RH WIND       PRES   REMARKS
MILWAUKEE      PTCLDY     5 -10  50 NW8       30.38R WCI  -8
MADISON        CLEAR     -4 -12  68 NW3       30.39R
GREEN BAY      CLEAR     -6 -14  68 NW8       30.38R WCI -21
EAU CLAIRE     FAIR      -9 -17  68 CALM      30.41S
BLACK RVR FLS  FAIR     -17 -23  72 CALM      30.42R
MEDFORD        CLEAR    -15 -19  80 NW3       30.32R
WAUSAU         CLEAR     -8 -16  67 NW8       30.33R WCI -24
WIS RAPIDS     CLEAR    -11 -18  71 CALM      30.39R
MARSHFIELD     CLEAR     -9 -17  68 NW6       30.35R WCI -22
RICE LAKE      CLEAR    -20 -26  73 CALM      30.41R
$$

...NORTHEAST IOWA...


CITY           SKY/WX    TMP DP  RH WIND       PRES   REMARKS
DECORAH        CLEAR     -6 -13  71 W5        30.40R WCI -17
MASON CITY     CLEAR    -11 -16  78 W6        30.45R WCI -25
CHARLES CITY   CLEAR    -11 -17  77 NW6       30.44R WCI -25
OELWEIN        CLEAR    -13 -20  70 NW8       30.43R WCI -30
$$

...ELSEWHERE IN IOWA...


CITY           SKY/WX    TMP DP  RH WIND       PRES   REMARKS
DES MOINES     PTCLDY     4  -7  60 N6        30.49R WCI  -7
IOWA CITY      CLEAR      1  -7  68 NW7       30.49R WCI -12
FORT DODGE     CLEAR     -4 -11  71 CALM      30.47R
$$

...NORTHERN ILLINOIS...


CITY           SKY/WX    TMP DP  RH WIND       PRES   REMARKS
CHICAGO-OHARE  PTCLDY     6  -8  52 N10       30.37R WCI  -9
CHICAGO-MIDWAY MOCLDY    11  -6  46 N9        30.38R WCI  -2
MOLINE         CLEAR      3  -6  66 NW7       30.46R WCI  -9
ROCKFORD       PTCLDY     2  -7  66 NW6       30.41R WCI  -9
PEORIA         MOCLDY     9  -2  61 CALM      30.45R
$$

NOTE: "FAIR" INDICATES FEW OR NO CLOUDS BELOW 12,000 FEET WITH NO
SIGNIFICANT WEATHER AND/OR OBSTRUCTIONS TO VISIBILITY. WIND
SPEEDS ARE IN MILES-PER-HOUR.



USA.gov is the U.S. government's official web portal to all federal, state and local government web resources and services.